This is the latest recevied weather packets stored in our database for station/object WD7OO. If no packets are shown the sender has not sent any weather packets the latest 10 day(s).
| Time | Temp. | Humidity | Pressure | Rain* | Wind** | Luminosity | Snow |
|---|---|---|---|---|---|---|---|
| 1777771714 | 5° C | 71% | 1017.5 hPa | 0 mm | - | 0 W/m² | - |
| 1777771412 | 5° C | 69% | 1017.4 hPa | 0 mm | - | 0 W/m² | - |
| 1777771108 | 5° C | 65% | 1017.4 hPa | 0 mm | - | 0 W/m² | - |
| 1777770805 | 5.56° C | 65% | 1017.5 hPa | 0 mm | - | 0 W/m² | - |
| 1777770502 | 5.56° C | 63% | 1017.4 hPa | 0 mm | - | 0 W/m² | - |
| 1777770199 | 6.11° C | 62% | 1017.4 hPa | 0 mm | - | 0 W/m² | - |
| 1777769895 | 6.11° C | 62% | 1017.5 hPa | 0 mm | - | 0 W/m² | - |
| 1777769593 | 6.67° C | 57% | 1017.5 hPa | 0 mm | - | 0 W/m² | - |
| 1777769289 | 6.67° C | 55% | 1017.7 hPa | 0 mm | - | 0 W/m² | - |
| 1777768987 | 7.22° C | 54% | 1017.3 hPa | 0 mm | - | 2 W/m² | - |
| 1777768684 | 7.22° C | 54% | 1017.5 hPa | 0 mm | - | 4 W/m² | - |
| 1777768381 | 7.78° C | 56% | 1017.5 hPa | 0 mm | - | 6 W/m² | - |
| 1777768078 | 8.33° C | 52% | 1017.5 hPa | 0 mm | - | 10 W/m² | - |
| 1777767775 | 8.33° C | 51% | 1017.4 hPa | 0 mm | - | 12 W/m² | - |
| 1777767471 | 8.89° C | 47% | 1017.4 hPa | 0 mm | - | 16 W/m² | - |
| 1777767168 | 8.89° C | 47% | 1017.3 hPa | 0 mm | - | 18 W/m² | - |
| 1777766866 | 9.44° C | 45% | 1017.4 hPa | 0 mm | - | 20 W/m² | - |
| 1777766562 | 9.44° C | 44% | 1017.2 hPa | 0 mm | - | 23 W/m² | - |
| 1777766259 | 10° C | 43% | 1017.6 hPa | 0 mm | - | 26 W/m² | - |
| 1777765957 | 10° C | 42% | 1017.6 hPa | 0 mm | - | 31 W/m² | - |
| 1777765653 | 10° C | 45% | 1017.8 hPa | 0 mm | - | 35 W/m² | - |
| 1777765351 | 10° C | 40% | 1017.8 hPa | 0 mm | - | 37 W/m² | - |
| 1777765047 | 10.56° C | 41% | 1017.6 hPa | 0 mm | - | 45 W/m² | - |
| 1777764744 | 11.11° C | 38% | 1017.4 hPa | 0 mm | - | 56 W/m² | - |
| 1777764439 | 10.56° C | 38% | 1017.4 hPa | 0 mm | - | 75 W/m² | - |
* Rain latest hour (hover to see other rain measurements)
** Current wind speed in m/s (hover to see current wind gust speed)